Location: Torres del Segre
(41.5340°N, 0.5142°E)
Time: 01:11:10
(UTC+00:00)

Daily predictions for brighter satellites

Satellite Brightness Start Highest point End
(mag) Time Altitude Azimuth Time Altitude Azimuth Time Altitude Azimuth
Lacrosse 5 4.0 00:01:56 10° WNW 00:03:12 15° W 00:03:12 15° W
Cosmos 1655 Rocket 4.2 00:07:30 54° WSW 00:08:23 60° W 00:14:33 10° N
COSMOS 2455 3.1 00:11:40 53° ESE 00:11:40 53° ESE 00:17:28 10° NE
S3M 4.1 00:06:02 10° NNW 00:12:04 58° W 00:12:35 56° WSW
Cosmos 1726 3.7 00:08:46 10° N 00:10:54 33° NNW 00:10:54 33° NNW
Cosmos 2263 4.3 00:12:25 59° W 00:12:58 62° WNW 00:18:33 10° NNE
Cosmos 2228 3.9 00:12:04 10° N 00:15:32 44° NE 00:15:32 44° NE
Meteor 2-15 Rocket 4.4 00:13:53 10° N 00:20:04 77° E 00:20:55 66° SE
Cosmos 1953 3.7 00:16:54 10° NNW 00:19:26 34° NW 00:19:26 34° NW
Cosmos 1340 Rocket 3.9 00:18:22 10° NNW 00:21:08 42° NNW 00:21:08 42° NNW
Cosmos 1992 Rocket 4.3 00:25:15 54° WNW 00:25:28 54° WNW 00:30:35 10° N
COSMOS 2487 4.4 00:25:21 10° N 00:27:17 29° N 00:27:17 29° N
Cosmos 1833 4.0 00:23:58 10° NNW 00:29:38 81° WSW 00:29:45 81° SW
USA 215 4.1 00:33:06 32° WSW 00:33:06 32° WSW 00:37:44 10° WNW
Cosmos 1626 3.9 00:34:31 28° NE 00:34:31 28° NE 00:36:49 10° NNE
Cosmos 1656 Rocket 3.9 00:33:51 55° W 00:34:31 59° WNW 00:40:05 10° NNE
In-Cosmos 22 4.5 00:35:37 50° W 00:35:50 50° WNW 00:40:59 10° N
FALCON 9 R/B 3.1 00:38:25 50° SSE 00:38:31 50° SSE 00:53:44 10° E
Cosmos 1606 Rocket 4.0 00:35:16 10° N 00:38:49 59° NNW 00:38:49 59° NNW
EO 1 Delta rocket 4.5 00:38:03 10° N 00:44:06 55° WNW 00:44:41 52° W
CZ-4 R/B 4.1 00:40:45 10° N 00:45:23 56° WNW 00:45:23 56° WNW
Meteor 2-21 4.3 00:45:34 64° SSE 00:46:33 80° E 00:52:44 10° N
SL-4 R/B 2.4 00:49:12 77° NE 00:49:12 77° NE 00:53:39 10° NE
Cosmos 1674 4.2 00:53:21 31° NW 00:53:21 31° NW 00:55:46 10° N
NOSS 3-2 (C) 4.1 00:44:41 10° NW 00:52:19 62° WSW 00:54:29 48° S
PSLV R/B 4.2 00:49:40 10° N 00:53:53 50° WNW 00:53:53 50° WNW
ATLAS CENTAUR R/B 1.7 00:56:56 66° N 00:56:56 66° N 01:00:39 10° NNE
NOSS 3-4 (A) 3.8 00:57:31 40° W 00:59:17 54° NW 01:05:28 10° NNE
SL-19 R/B 4.1 00:53:52 10° NNE 00:59:19 81° ESE 01:00:03 67° S
NOSS 3-4 (C) 3.8 00:57:38 41° W 00:59:22 55° NW 01:05:35 10° NNE
SL-16 R/B 3.5 00:56:01 21° SE 00:59:39 43° ENE 01:05:24 10° N
BREEZE-M R/B 3.7 01:01:07 47° E 01:01:07 47° E 01:03:37 10° ENE
Cosmos 1777 Rocket 4.1 00:55:45 10° NNW 01:00:59 70° ENE 01:01:54 57° SE
Spot 1 4.2 01:00:54 75° E 01:01:02 76° ENE 01:05:50 10° N
Timation 2 Rocket 4.4 00:54:53 10° NNW 01:01:08 57° ENE 01:04:30 27° SE
ATLAS 3B R/B 2.7 01:01:19 10° NNW 01:08:10 79° NE 01:12:43 24° SE
Cosmos 1244 Rocket 4.5 01:07:54 56° SW 01:09:07 70° W 01:15:20 10° N
BREEZE-M DEB (TANK) 3.8 01:12:38 23° NNE 01:12:38 23° NNE 01:13:44 10° NE
CENTAUR R/B 3.3 01:04:08 10° NW 01:12:11 56° WSW 01:14:47 43° SSW
Meteor 2-21 Rocket 4.3 01:11:40 58° SSW 01:12:57 83° W 01:19:10 10° N
Cosmos 1745 Rocket 4.1 01:12:45 47° SSE 01:14:29 67° E 01:20:34 10° NNE
Cosmos 1892 Rocket 4.1 01:14:51 47° WNW 01:14:51 47° WNW 01:18:49 10° N
Cosmos 1867 3.5 01:11:10 10° NW 01:16:35 65° WSW 01:16:44 65° SW
RESURS DK-1 2.5 01:19:17 73° N 01:19:17 73° N 01:23:04 10° NNE
Meteor 1-24 Rocket 3.6 01:22:03 56° WSW 01:22:42 60° WNW 01:28:01 10° N
Cosmos 2227 Rocket 4.0 01:19:44 10° N 01:24:41 30° NE 01:29:36 10° ESE
Cosmos 1356 Rocket 3.7 01:21:21 10° N 01:25:28 59° ENE 01:25:49 57° ESE
ATLAS 2AS CENTAUR R/B 3.9 01:23:17 22° WSW 01:28:10 43° NW 01:35:41 10° NNE
CZ-2D R/B 2.3 01:23:48 10° NNE 01:29:02 62° ESE 01:30:15 48° SSE
Helios 1B rocket 4.4 01:26:11 10° NNW 01:29:07 19° WNW 01:29:11 19° WNW
CZ-4C R/B 3.4 01:30:46 74° ESE 01:31:03 78° ENE 01:35:21 10° N
ADEOS II 3.8 01:27:15 10° NE 01:31:33 25° E 01:34:07 18° SE
DELTA 2 DEB (DPAF) 4.1 01:34:11 66° W 01:34:11 66° W 01:38:36 10° NNW
STARLINK-1228 4.3 01:32:05 10° NW 01:35:17 40° NNE 01:38:28 10° ESE
STARLINK-1234 4.4 01:33:32 10° NW 01:36:28 37° NNE 01:37:02 33° ENE
USA 81 4.4 01:36:19 39° SSE 01:38:05 59° E 01:43:16 10° NNE
STARLINK-1209 4.2 01:35:45 10° NW 01:38:42 41° NNE 01:38:42 41° NNE
Resurs 1-4 Rocket 2.1 01:33:29 10° NNE 01:38:48 79° ESE 01:40:11 50° S
STARLINK-52 4.1 01:39:41 42° N 01:39:41 42° N 01:42:11 10° NE
NPP 3.6 01:40:50 10° NNE 01:46:15 78° ESE 01:47:56 45° S
GEOS 3 Rocket 4.2 01:48:43 38° WSW 01:48:43 38° WSW 01:53:06 10° NW
STARLINK-1235 4.0 01:45:27 10° NW 01:48:27 43° NNE 01:51:26 10° ESE
STARLINK-1187 4.3 01:45:54 10° NW 01:48:50 39° NNE 01:51:47 10° ESE
Meteor 1-21 Rocket 4.4 01:46:49 38° SSE 01:48:55 67° E 01:54:31 10° NNE
STARLINK-1191 4.5 01:47:18 10° NW 01:50:12 36° NNE 01:53:06 10° E
Cosmos 1656 4.0 01:48:20 38° SSE 01:50:17 58° ESE 01:55:49 10° NNE
STARLINK-1221 4.4 01:48:09 10° NW 01:51:04 36° NNE 01:53:59 10° E
Cosmos 2058 Rocket 4.3 01:47:42 10° NNW 01:51:01 27° WNW 01:51:01 27° WNW
STARLINK-1222 4.4 01:49:03 10° NW 01:51:59 37° NNE 01:54:53 10° ESE
CZ-4C R/B 3.2 01:50:43 25° SE 01:52:17 30° ESE 01:57:01 10° NE
STARLINK-1214 4.3 01:49:58 10° NW 01:52:54 37° NNE 01:55:48 10° ESE
Cosmos 2084 3.5 01:52:18 58° WSW 01:53:01 70° NW 01:57:29 10° NNE
SL-08 ROCKET BODY 4.4 01:52:04 43° SW 01:53:50 62° W 01:59:39 10° N
Cosmos 468 Rocket 4.4 01:52:22 36° SSE 01:54:06 53° ESE 01:59:05 10° NNE
SJ 16-02 2.4 01:51:32 10° N 01:55:48 44° ENE 01:59:17 14° SE
COSMOS 2455 4.2 01:54:47 19° W 01:57:51 29° NW 02:03:02 10° NNE
Cosmos 921 Rocket 3.9 02:00:21 32° W 02:00:50 33° WNW 02:04:44 10° N
Cosmos 1300 4.3 01:57:43 10° NW 02:00:01 23° WNW 02:00:01 23° WNW
Meteor 2-10 Rocket 3.6 01:57:44 10° N 02:03:04 73° E 02:06:01 26° SSE
Cosmos 1709 Rocket 3.9 02:01:47 35° S 02:04:35 90° ESE 02:10:44 10° N
Cosmos 1626 Rocket 4.2 02:06:42 36° W 02:07:09 37° WNW 02:11:12 10° N
Cosmos 1626 4.4 02:09:03 14° WNW 02:09:03 14° WNW 02:10:51 10° NW
STARLINK-1320 2.8 02:14:52 77° NNW 02:14:52 77° NNW 02:17:56 10° NE
STARLINK-1322 2.8 02:15:11 76° NNW 02:15:11 76° NNW 02:18:16 10° NE
STARLINK-1324 2.8 02:15:32 76° NNW 02:15:32 76° NNW 02:18:38 10° NE
STARLINK-1294 2.8 02:15:47 76° NW 02:15:47 76° NW 02:18:56 10° NE
STARLINK-1261 2.8 02:16:09 75° NW 02:16:09 75° NW 02:19:16 10° NE
STARLINK-1325 2.8 02:16:30 74° NW 02:16:31 74° NW 02:19:38 10° NE
STARLINK-1333 2.8 02:16:48 74° NW 02:16:49 74° NW 02:19:57 10° NE
STARLINK-1334 2.8 02:17:07 73° NW 02:17:10 73° NW 02:20:17 10° NE
STARLINK-1326 2.8 02:17:28 72° NW 02:17:31 72° NW 02:20:38 10° NE
Cosmos 1980 Rocket 3.8 02:13:41 13° SSE 02:17:40 27° ESE 02:22:21 10° NE
Cosmos 2219 3.1 02:12:10 10° NNW 02:17:50 77° WSW 02:22:14 17° SSE
STARLINK-1323 2.8 02:17:47 72° NW 02:17:51 72° NW 02:20:58 10° NE
STARLINK-1338 3.0 02:17:39 68° WSW 02:18:03 84° NW 02:21:32 10° NE
STARLINK-1349 2.8 02:18:06 71° NW 02:18:11 71° NW 02:21:17 10° NE
STARLINK-1336 2.9 02:18:28 70° NW 02:18:33 71° NW 02:21:40 10° NE
STARLINK-1331 2.9 02:18:45 69° NW 02:18:52 70° NW 02:21:58 10° NE
STARLINK-1344 2.9 02:19:05 68° WNW 02:19:12 70° NW 02:22:19 10° NE
STARLINK-1343 2.9 02:19:25 68° WNW 02:19:32 69° NW 02:22:39 10° NE
STARLINK-1346 2.9 02:19:43 66° WNW 02:19:54 69° NW 02:23:02 10° NE
STARLINK-1328 2.9 02:20:05 66° WNW 02:20:14 68° NW 02:23:20 10° NE
STARLINK-1354 2.9 02:20:22 65° WNW 02:20:33 68° NW 02:23:40 10° NE
Cosmos 1328 3.9 02:19:19 38° S 02:20:42 72° E 02:24:41 10° NNE
STARLINK-1347 2.9 02:20:44 65° WNW 02:20:55 67° NW 02:24:00 10° NE
STARLINK-1357 2.9 02:21:02 64° WNW 02:21:13 66° NW 02:24:20 10° NE
STARLINK-1335 2.9 02:21:22 63° WNW 02:21:35 66° NW 02:24:41 10° NE
STARLINK-1327 2.9 02:21:40 62° WNW 02:21:54 65° NW 02:25:00 10° NE
STARLINK-1371 3.1 02:21:31 59° WSW 02:22:04 77° NW 02:25:35 10° NE
STARLINK-1340 2.9 02:22:01 61° WNW 02:22:15 65° NW 02:25:22 10° NE
STARLINK-1356 3.0 02:22:21 61° WNW 02:22:36 64° NW 02:25:42 10° NE
STARLINK-1345 3.0 02:22:41 60° WNW 02:22:57 64° NW 02:26:02 10° NE
UNK 4.3 02:22:20 35° WSW 02:22:59 36° W 02:27:15 10° NNW
STARLINK-1355 3.0 02:22:59 59° WNW 02:23:16 63° NW 02:26:22 10° NE
ERS-2 4.1 02:20:21 10° SE 02:23:32 29° ENE 02:26:45 10° N
STARLINK-1321 3.0 02:23:18 58° WNW 02:23:35 63° NW 02:26:42 10° NE
STARLINK-1358 3.0 02:23:39 58° WNW 02:23:57 62° NW 02:27:03 10° NE
STARLINK-1341 3.2 02:23:29 55° WSW 02:24:07 74° NW 02:27:37 10° NE
STARLINK-1332 3.0 02:23:57 57° WNW 02:24:16 62° NW 02:27:22 10° NE
STARLINK-1348 3.0 02:24:18 56° WNW 02:24:38 61° NW 02:27:44 10° NE
STARLINK-1330 3.0 02:24:36 56° WNW 02:24:57 61° NW 02:28:03 10° NE
STARLINK-1363 3.1 02:24:56 55° WNW 02:25:16 60° NW 02:28:22 10° NE
STARLINK-1337 3.1 02:25:15 54° WNW 02:25:37 60° NW 02:28:43 10° NE
STARLINK-1342 3.1 02:25:35 53° WNW 02:25:58 59° NW 02:29:03 10° NE
STARLINK-1374 3.2 02:25:26 51° WSW 02:26:10 71° NW 02:29:40 10° NE
STARLINK-1364 3.1 02:25:55 53° WNW 02:26:19 59° NW 02:29:24 10° NE
STARLINK-1376 3.1 02:26:15 52° WNW 02:26:40 58° NW 02:29:45 10° NE
STARLINK-1360 3.1 02:26:30 51° WNW 02:26:56 58° NW 02:30:01 10° NE
STARLINK-1361 3.2 02:26:56 51° WNW 02:27:22 58° NW 02:30:27 10° NE
STARLINK-1367 3.2 02:27:10 50° WNW 02:27:38 58° NW 02:30:46 10° NE
STARLINK-1366 3.2 02:27:33 49° WNW 02:28:01 57° NW 02:31:05 10° NE
STARLINK-1339 3.3 02:27:26 47° W 02:28:15 68° NW 02:31:45 10° NE
SL-4 R/B 4.0 02:24:50 10° WNW 02:29:05 30° NNW 02:33:13 10° NE
IRS-1C 4.3 02:24:38 10° NNE 02:30:00 72° ESE 02:33:25 23° S
AQUA 4.2 02:25:47 10° N 02:30:21 48° WNW 02:32:11 31° SW
STARLINK-1377 3.3 02:29:28 44° W 02:30:22 65° NW 02:33:50 10° NE
Cosmos 1812 Rocket 4.2 02:26:32 10° NNW 02:30:39 38° W 02:31:37 33° WSW
STARLINK-1353 3.4 02:31:17 42° W 02:32:13 63° NW 02:35:41 10° NE
CZ-4B R/B 4.1 02:27:58 10° N 02:32:52 46° WNW 02:35:13 28° SW
Cosmos 2297 Rocket 2.1 02:27:44 10° NNW 02:33:22 72° WSW 02:38:59 10° SSE
STARLINK-1375 3.4 02:33:04 39° W 02:34:05 60° NW 02:37:32 10° NE
Cosmos 540 Rocket 4.1 02:32:22 20° S 02:35:48 52° ESE 02:40:47 10° NNE
ATLAS CENTAUR R/B 4.0 02:34:23 10° WNW 02:35:56 12° NW 02:37:29 10° NNW
STARLINK-1350 3.5 02:35:22 37° W 02:36:29 57° NW 02:39:55 10° NE
Cosmos 2082 4.2 02:31:27 10° NNW 02:37:05 63° ENE 02:42:38 10° SE
STARLINK-1352 3.6 02:37:39 33° W 02:38:55 55° NW 02:42:23 10° NE
Cosmos 990 Rocket 3.9 02:33:59 10° NNW 02:39:15 77° WSW 02:44:29 10° SSE
CBERS-1 4.2 02:34:45 10° N 02:39:47 59° WNW 02:42:28 27° SW
Cosmos 1825 Rocket 3.6 02:38:21 33° SW 02:40:04 58° W 02:44:21 10° N
Cosmos 2278 4.3 02:36:08 18° S 02:40:08 52° ESE 02:45:37 10° NNE
STARLINK-1368 3.7 02:39:45 31° W 02:41:05 52° NNW 02:44:33 10° NE
Meteor 1-11 4.4 02:38:11 18° S 02:42:31 73° E 02:48:06 10° NNE
STARLINK-1369 3.7 02:41:37 30° W 02:43:01 50° NNW 02:46:26 10° NE
STARLINK-1238 4.4 02:39:10 10° NW 02:43:14 54° NNE 02:47:17 10° ESE
Meteor 1-28 Rocket 4.1 02:39:36 10° SSE 02:43:15 49° ENE 02:46:55 10° N
SL-16 R/B 3.3 02:41:06 24° SW 02:43:20 31° W 02:48:43 10° NW
Cosmos 1455 2.6 02:39:51 10° NNW 02:43:23 40° W 02:44:16 34° SW
CZ-2D R/B 4.4 02:40:16 10° NNE 02:44:14 44° E 02:47:41 14° S
STARLINK-1372 3.8 02:43:58 28° W 02:45:29 48° NNW 02:48:56 10° NE
Cosmos 2074 Rocket 4.2 02:40:25 14° S 02:45:55 75° E 02:52:12 10° N
USA 234 4.1 02:40:10 10° ENE 02:46:14 39° SE 02:51:07 15° S
ATLAS CENTAUR R/B 2.3 02:43:22 10° NW 02:46:46 76° SW 02:55:12 10° SE
STARLINK-1378 3.9 02:46:05 26° W 02:47:43 46° NNW 02:51:09 10° NE
Cosmos 841 Rocket 3.6 02:44:27 21° S 02:48:02 74° ESE 02:53:17 10° NNE
STARLINK-1329 3.9 02:46:35 25° W 02:48:14 46° NNW 02:51:41 10° NE
STARLINK-1201 4.2 02:44:09 10° NW 02:48:15 59° NE 02:52:21 10° ESE
STARLINK-1365 4.0 02:47:16 24° W 02:48:58 44° NNW 02:52:23 10° NE
STARLINK-1379 4.0 02:48:13 24° W 02:49:56 45° NNW 02:53:22 10° NE
STARLINK-1362 4.0 02:48:47 24° W 02:50:32 44° NNW 02:53:58 10° NE
GP-B 3.8 02:47:36 10° NNW 02:51:41 37° W 02:53:37 25° SW
IRS-1D 4.1 02:47:34 10° N 02:52:40 46° WNW 02:55:45 22° SW
STARLINK-1373 4.1 02:50:59 22° W 02:52:50 43° NNW 02:56:15 10° NE
COBE Rocket 4.1 02:48:20 10° SSE 02:53:12 74° ENE 02:58:14 10° N
STARLINK-1206 4.1 02:49:07 10° NW 02:53:14 64° NE 02:57:21 10° ESE
STARLINK-1390 4.1 02:52:58 21° W 02:54:54 41° NNW 02:58:17 10° NE
Cosmos-2242 3.3 02:50:54 10° NNW 02:54:59 47° W 02:57:20 23° SSW
Cosmos 1400 Rocket 3.1 02:52:03 10° N 02:56:11 72° E 03:00:17 10° SSE
Cosmos 2221 4.2 02:52:58 10° N 02:56:57 35° ENE 03:00:55 10° SE
Cosmos 2184 Rocket 4.0 02:51:54 13° S 02:57:26 88° E 03:03:38 10° N
ATLAS 3B R/B 3.9 02:53:22 10° WNW 02:58:09 20° WSW 02:59:50 19° SW
STARLINK-1205 3.9 02:54:05 10° NW 02:58:13 69° NE 03:02:21 10° ESE
SL-08 R/B 3.2 02:54:12 11° S 02:58:44 68° WSW 03:03:23 10° NNW
CZ-4C R/B 4.2 02:55:49 10° SSE 02:59:14 45° ENE 03:02:43 10° N
STARLINK-1218 3.8 02:59:02 10° NW 03:03:11 75° NE 03:07:19 10° ESE
Cosmos 1703 4.3 03:02:10 22° WSW 03:03:47 30° WNW 03:07:19 10° NNW
Cosmos 1763 Rocket 4.1 03:03:46 19° SW 03:06:56 40° WNW 03:11:43 10° N
STARLINK-1254 3.7 03:04:01 10° NW 03:08:11 82° NE 03:12:19 10° SE
CZ-2D R/B 3.9 03:05:08 10° NNW 03:08:33 18° WNW 03:11:34 11° W
Cosmos 2227 Rocket 2.6 03:03:32 10° NW 03:08:51 42° WSW 03:14:07 10° S
Cosmos 1697 Rocket 2.9 03:04:56 19° SW 03:08:58 60° WNW 03:14:36 10° NNE
Cosmos 2181 Rocket 4.5 03:03:40 10° NNW 03:09:42 44° W 03:15:15 12° SSW
ADEOS II 2.7 03:06:28 10° N 03:11:22 41° WNW 03:15:03 17° SW
STARLINK-1228 4.2 03:09:03 10° WNW 03:11:44 23° SW 03:14:26 10° S
STARLINK-1231 3.6 03:09:01 10° NW 03:13:11 89° NE 03:17:19 10° SE
STARLINK-1212 3.6 03:10:47 10° WNW 03:13:34 30° SW 03:16:20 10° SSE
STARLINK-1105 3.6 03:11:17 10° WNW 03:14:02 29° SW 03:16:46 10° SSE
STARLINK-1247 3.7 03:12:12 10° WNW 03:14:57 29° SW 03:17:43 10° SSE
SL-16 R/B 4.2 03:10:42 10° SSE 03:15:07 24° ESE 03:19:33 10° NE
STARLINK-1227 3.7 03:12:40 10° WNW 03:15:23 28° SW 03:18:06 10° SSE
Cosmos 1315 Rocket 4.2 03:12:27 10° N 03:16:10 40° ENE 03:19:52 10° SSE
STARLINK-1226 3.7 03:13:31 10° WNW 03:16:16 28° SW 03:18:59 10° SSE
STARLINK-1215 3.7 03:14:29 10° WNW 03:17:12 28° SW 03:19:55 10° SSE
Resurs 1-4 Rocket 4.1 03:15:08 10° NNW 03:17:57 15° WNW 03:20:46 10° W
STARLINK-1232 3.5 03:14:00 10° NW 03:18:09 84° SW 03:22:18 10° SE
CZ-2C R/B 2.9 03:14:29 10° NNE 03:18:10 69° ESE 03:21:53 10° S
STARLINK-1217 3.8 03:16:16 10° WNW 03:18:57 26° SW 03:21:38 10° SSE
H-2A R/B 2.0 03:15:20 10° S 03:19:35 78° WSW 03:24:01 10° NNW
STARLINK-1229 3.8 03:17:12 10° WNW 03:19:53 26° SW 03:22:32 10° SSE
STARLINK-1270 3.9 03:18:05 10° WNW 03:20:44 25° SW 03:23:23 10° SSE
STARLINK-1189 3.9 03:19:58 10° WNW 03:22:34 24° SW 03:25:10 10° S
BREEZE-M R/B 4.3 03:19:56 10° WNW 03:22:45 21° NNW 03:24:52 10° NE
ARIANE 5 R/B 2.8 03:18:04 10° N 03:22:58 50° WNW 03:27:14 13° SW
STARLINK-1208 3.5 03:18:58 10° NW 03:23:06 77° SW 03:27:14 10° SE
STARLINK-1188 3.9 03:20:52 10° WNW 03:23:27 24° SW 03:26:01 10° S
STARLINK-1235 4.3 03:23:58 18° SW 03:24:02 18° SW 03:26:14 10° S
STARLINK-1187 4.2 03:22:06 10° W 03:24:29 20° SW 03:26:52 10° S
STARLINK-1191 4.0 03:23:23 10° WNW 03:25:53 22° SW 03:28:23 10° S
STARLINK-1221 4.0 03:24:16 10° W 03:26:45 22° SW 03:29:14 10° S
STARLINK-1222 4.1 03:25:11 10° W 03:27:38 22° SW 03:30:06 10° S
STARLINK-1271 3.5 03:23:58 10° NW 03:28:06 70° SW 03:32:12 10° SE
BREEZE-M DEB (TANK) 1.0 03:26:16 10° WNW 03:28:22 76° SSW 03:30:59 10° SE
STARLINK-1214 4.1 03:26:06 10° W 03:28:32 21° SW 03:30:58 10° S
Spot 4 Rocket 4.2 03:23:49 10° N 03:28:53 62° WNW 03:33:56 10° SSW
SL-24 DEB 4.3 03:24:41 10° N 03:29:21 79° E 03:33:56 10° S
Cosmos 2154 Rocket 4.0 03:23:06 10° S 03:29:24 82° W 03:35:42 10° N
Lacrosse 4 Rocket 1.4 03:26:05 10° NNW 03:30:25 82° WSW 03:34:37 10° SSE
Cosmos 2058 3.5 03:26:43 10° S 03:30:47 57° E 03:34:55 10° NNE
Meteor 1-27 4.2 03:26:09 10° NNW 03:31:40 64° W 03:37:08 10° S
USA 129 0.7 03:30:49 10° N 03:32:37 59° WNW 03:33:06 31° SW
STARLINK-1154 3.6 03:28:58 10° WNW 03:33:04 63° SW 03:37:09 10° SE
SJ 16-02 3.0 03:31:12 10° WNW 03:33:59 16° W 03:36:11 12° SW
Cosmos 2298 Rocket 4.1 03:29:16 10° NNW 03:34:35 83° ENE 03:39:54 10° SSE
IDEFIX/ARIANE 42P 2.6 03:31:39 10° N 03:36:56 75° WNW 03:42:10 10° SSW
STARLINK-1197 3.6 03:33:57 10° WNW 03:38:02 57° SW 03:42:05 10° SE
STARLINK 1040 3.0 03:35:58 13° SSW 03:38:02 47° SE 03:40:32 10° ENE
CZ-4C R/B 2.9 03:35:54 11° WSW 03:40:30 40° NW 03:46:05 10° NNE
Cosmos 1937 Rocket 4.3 03:37:45 10° NW 03:42:16 30° W 03:46:47 10° SSW
Cosmos 2285 Rocket 4.5 03:36:34 10° NW 03:42:25 39° W 03:48:12 10° SSW
STARLINK-1198 3.7 03:38:56 10° WNW 03:42:58 52° SW 03:46:59 10° SSE
Cosmos 1842 Rocket 3.8 03:40:35 10° NNW 03:44:58 54° W 03:49:19 10° S
Cosmos 1408 3.9 03:42:24 10° SSE 03:45:55 42° E 03:49:27 10° NNE
Iridium 2 4.5 03:44:13 10° NNW 03:47:36 32° W 03:50:58 10° SSW
STARLINK-1199 3.8 03:43:58 10° WNW 03:47:58 47° SW 03:51:56 10° SSE
Meteor 2-2 Rocket 4.4 03:43:25 10° NNW 03:49:27 77° W 03:55:27 10° S
Uosat 12 SS-18 rocket 4.0 03:45:24 10° NW 03:49:41 76° WSW 03:54:21 10° SSE
STARLINK-1210 4.0 03:48:58 10° WNW 03:52:54 43° SW 03:56:49 10° SSE
CZ-4B R/B 1.9 03:50:14 10° SSE 03:53:14 58° ENE 03:56:14 10° N
STARLINK-42 4.5 03:52:22 10° SSW 03:55:11 29° SE 03:58:01 10° ENE
ERS-2 3.7 03:54:37 10° SW 03:57:08 17° W 03:59:39 10° NW
STARLINK-43 3.3 03:53:49 10° SW 03:57:29 84° NW 04:01:11 10° NE
STARLINK-1219 4.1 03:53:59 10° WNW 03:57:51 39° SW 04:01:42 10° SSE
Cosmos 1825 3.5 03:56:18 10° SSE 03:59:50 41° E 04:03:25 10° NNE
Timation 1 Rocket 4.3 03:54:16 10° NNW 04:00:16 81° WSW 04:06:12 10° SSE
CZ-2C R/B 3.0 03:56:03 10° NNE 04:01:10 66° ESE 04:06:19 10° S
Cosmos 1980 Rocket 2.8 03:56:08 10° SW 04:01:26 42° WNW 04:06:46 10° NNE
Cosmos 1125 Rocket 3.7 03:56:48 10° NNW 04:02:01 81° ENE 04:07:13 10° SSE
